OpenBCM V1.13 (Linux)

Packet Radio Mailbox

DB0FHN

[JN59NK Nuernberg]

 Login: GUEST





  
I0OJJ  > KEPS     06.02.25 06:02l 326 Lines 15572 Bytes #999 (0) @ AMSAT
BID : ORB25037.1
Read: DL5MBW DJ6UX GUEST
Subj: 2Line Orbital Elements 25037.AMSAT
Path: DB0FHN<DB0FFL<OE5XBL<OE6XPE<DB0ERF<DK0WUE<DK0WUE<VK5RSV<VK2RZ<LU9DCE<
      EA2RCF<I0OJJ
Sent: 250206/0345z @:I0OJJ.ITA.EU [Rome] obcm1.08-6-g5b69
From: I0OJJ @ I0OJJ.ITA.EU (Gustavo)
To:   KEPS @ AMSAT
X-Info: This message was generated automatically


QST de W1STR

AMSAT Orbital Elements for Amateur Satellites in TLE Format
From Orbital Analysis Office
New England Sci-Tech STEM Education Center
Natick, MA February 06, 2025
To all radio amateurs


These element sets describe the orbits of various satellites 
in use by the amateur radio community. For details see:
www.amsat.org/keplerian-elements-formats/

A daily update of element sets is available at:
www.amsat.org/tle/daily-bulletin.txt
or without bulletin text:
www.amsat.org/tle/dailytle.txt


AO-07
1 07530U 74089B   25036.49240701 -.00000024  00000-0  13964-3 0  9999
2 07530 101.9930  39.4372 0012187   0.3046 119.2761 12.53685741298277
UO-11
1 14781U 84021B   25036.48746153  .00002879  00000-0  31443-3 0  9994
2 14781  97.7382   5.4938 0008812  36.8404 323.3417 14.88633284183172
AO-27
1 22825U 93061C   25036.57732795  .00000292  00000-0  12891-3 0  9996
2 22825  98.7561  97.4165 0009419 113.9410 246.2760 14.30723268635985
FO-29
1 24278U 96046B   25036.46553664  .00000049  00000-0  89216-4 0  9996
2 24278  98.5879 306.6171 0349168 304.2086  52.6419 13.53236086405989
NOAA-15
1 25338U 98030A   25036.83866761  .00000412  00000-0  18723-3 0  9993
2 25338  98.5491  64.8717 0010274   7.7764 352.3574 14.26876304390751
GO-32
1 25397U 98043D   25036.91137682  .00000304  00000-0  15182-3 0  9990
2 25397  98.9558  13.5485 0001248 156.6588 203.4646 14.24248690380907
ISS
1 25544U 98067A   25036.84670846  .00015419  00000-0  27920-3 0  9992
2 25544  51.6378 237.5586 0003505 278.8954  96.0035 15.49835475494791
NO-44
1 26931U 01043C   25036.57664836  .00000454  00000-0  20155-3 0  9999
2 26931  67.0504  88.4274 0006096 263.3671  96.6737 14.31609443219350
SO-50
1 27607U 02058C   25036.53495704  .00002712  00000-0  36343-3 0  9994
2 27607  64.5527 223.2402 0041292   5.7931 354.3642 14.80898702190858
CO-55
1 27844U 03031E   25036.44476277  .00000836  00000-0  38440-3 0  9998
2 27844  98.6788  46.3164 0009607 181.4655 178.6497 14.23804931120975
CO-57
1 27848U 03031J   25036.75802883  .00000720  00000-0  33773-3 0  9998
2 27848  98.6815  46.7225 0009207 197.6204 162.4656 14.23168222120803
RS-22
1 27939U 03042A   25036.83492595  .00002855  00000-0  46571-3 0  9996
2 27939  98.3125 203.4303 0012336  45.3892  62.7070 14.71716050142620
NOAA-18
1 28654U 05018A   25036.75253715  .00000425  00000-0  24894-3 0  9991
2 28654  98.8531 117.5877 0015107 120.0131 240.2542 14.13507926 16250
CO-58
1 28895U 05043F   25036.34723306  .00003775  00000-0  63558-3 0  9990
2 28895  98.2277 179.3657 0014588 344.1385  15.9361 14.70093901 28684
CO-65
1 32785U 08021C   25036.54168051  .00010084  00000-0  77255-3 0  9994
2 32785  97.7663   7.1026 0008717 275.4985  84.5245 15.02020263910441
AAUSAT2
1 32788U 08021F   25036.48565216  .00093774  00000-0  18976-2 0  9995
2 32788  97.6060  27.7216 0007513  86.9600 273.2508 15.46070172913977
CO-66
1 32791U 08021J   25036.91439752  .00021829  00000-0  12170-2 0  9994
2 32791  97.7169  14.7239 0002916 196.9421 163.1713 15.13597273911836
RS-30
1 32953U 08025A   25036.78574781  .00000018  00000-0  58848-4 0  9996
2 32953  82.5049 304.1913 0019176 318.4771  41.4852 12.43158320758157
NOAA-19
1 33591U 09005A   25036.88042093  .00000390  00000-0  23191-3 0  9996
2 33591  99.0155 100.8080 0013546 357.2479   2.8616 14.13278437824631
SRMSAT
1 37841U 11058D   25036.59522611  .00000698  00000-0  23609-3 0  9991
2 37841  19.9704 184.7934 0011739 140.7324 300.4848 14.11354812687573
ZACUBE-1
1 39417U 13066B   25036.62065592  .00009401  00000-0  85844-3 0  9997
2 39417  97.7646 354.5946 0048228 105.3040 255.3517 14.94373799606385
Delfi-N3xt
1 39428U 13066N   25036.48102718  .00013035  00000-0  14147-2 0  9990
2 39428  97.8368 315.7692 0091374  49.2145 311.6953 14.85214624600631
GOMX-1
1 39430U 13066Q   25036.84718918  .00004861  00000-0  77201-3 0  9996
2 39430  97.7006 263.0399 0133311 227.9083 131.0725 14.66726618597260
LO-74
1 39440U 13066AA  25036.56635189  .00007142  00000-0  75558-3 0  9992
2 39440  97.8369 342.2473 0062960 227.7868 131.7995 14.88020095602989
AO-73
1 39444U 13066AE  25036.61080435  .00012935  00000-0  10511-2 0  9993
2 39444  97.7487 358.5814 0043526  82.2134 278.4028 14.98975357604999
DTUSAT-2
1 40030U 14033W   25036.64996377  .00013492  00000-0  94963-3 0  9998
2 40030  98.0408   2.8582 0011503 114.8793 245.3629 15.05131407578240
EO-80
1 40032U 14033Y   25036.61066712  .00012571  00000-0  88323-3 0  9998
2 40032  98.0299   2.6400 0011176  66.6271 293.6128 15.05218429577708
XW-2C
1 40906U 15049H   25036.82328700  .00656128  19864-3  12406-2 0  9998
2 40906  97.4422  71.5538 0004064 161.9924 198.1499 16.00798630520899
LILACSAT-2
1 40908U 15049K   25036.84136297  .00017165  00000-0  51378-3 0  9993
2 40908  97.5175  54.4993 0008433 237.4820 122.5608 15.34571956519224
IO-86
1 40931U 15052B   25029.03811298  .00001879  00000-0  16388-3 0  9994
2 40931   5.9985 178.0957 0012329  44.5838 315.5281 14.78544596504930
Horyu-4
1 41340U 16012D   25036.78904893  .00029227  00000-0  10001-2 0  9992
2 41340  30.9975 239.8058 0005977 217.8713 142.1511 15.29036782493777
Lapan A3
1 41603U 16040E   25036.82727418  .00006975  00000-0  25437-3 0  9991
2 41603  97.1399  46.3939 0011170   1.3573 358.7695 15.28402829478875
CAS-2T
1 41847U 16066G   25036.79146914  .00003739  00000-0  54252-3 0  9993
2 41847  98.4336 112.3122 0348250 192.6585 166.5691 14.42866163433161
CAS-4B
1 42759U 17034B   25036.86959181  .00051290  00000-0  10013-2 0  9999
2 42759  43.0129 329.8548 0015529 153.1804 206.9861 15.46582485423347
CAS-4A
1 42761U 17034D   25036.83745983  .00050919  00000-0  97886-3 0  9993
2 42761  43.0165 328.0221 0016885 159.4444 200.7098 15.47005936423351
TechnoSat
1 42829U 17042E   25036.45489984  .00005702  00000-0  45958-3 0  9994
2 42829  97.3908 211.1822 0012407 357.9991   2.1182 15.00215053412101
AO-91
1 43017U 17073E   25036.38343892  .00015503  00000-0  84503-3 0  9996
2 43017  97.5490 270.3939 0181819 229.1542 129.3802 15.01350622390559
S-Net D
1 43186U 18014G   25036.45155455  .00009044  00000-0  56567-3 0  9995
2 43186  97.5739 300.7272 0007741 297.9916  62.0529 15.09624094383634
S-Net B
1 43187U 18014H   25036.45551468  .00009039  00000-0  56556-3 0  9992
2 43187  97.5745 300.6963 0008384 291.6576  68.3759 15.09610086383635
S-Net A
1 43188U 18014J   25036.78374202  .00009419  00000-0  58871-3 0  9992
2 43188  97.5751 301.1554 0008248 291.1400  68.8947 15.09635259383683
S-Net C
1 43189U 18014K   25036.45763963  .00009138  00000-0  57152-3 0  9992
2 43189  97.5767 300.8261 0009796 282.6857  77.3277 15.09608550382181
Ten-Koh
1 43677U 18084G   25036.52401419  .00005770  00000-0  47712-3 0  9993
2 43677  98.0824 203.8837 0011794 321.1553  38.8820 14.99286789341643
PO-101
1 43678U 18084H   25036.86930852  .00003603  00000-0  31642-3 0  9997
2 43678  98.0907 208.4200 0008251 343.2034  16.8913 14.97240797341864
QO-100
1 43700U 18090A   25036.33180529  .00000146  00000-0  00000-0 0  9990
2 43700   0.0072 133.1331 0001225 177.3432 330.4314  1.00269539 22699
MinXSS-2
1 43758U 18099A   25036.15254866  .00021491  00000-0  10046-2 0  9997
2 43758  97.5206 102.1905 0012574 230.5233 129.4890 15.19734545338037
AO-95
1 43770U 18099N   25036.12746151  .00013796  00000-0  77283-3 0  9997
2 43770  97.5117  95.7768 0010454 285.5966  74.4111 15.13483063337702
RANGE-A
1 43773U 18099R   25036.86594409  .00008842  00000-0  59231-3 0  9997
2 43773  97.4695  88.8856 0010259 254.4783 105.5313 15.07081366337579
MOVE-II
1 43780U 18099Y   25036.43726252  .00070349  00000-0  17203-2 0  9994
2 43780  97.4855 106.4272 0003913 235.5652 124.5225 15.40541233338506
SNUSat 2
1 43782U 18099AA  25036.42043488  .00011574  00000-0  68642-3 0  9997
2 43782  97.4809  93.7725 0011949 218.3464 141.6917 15.11454975337721
SnugLite
1 43784U 18099AC  25036.11701135  .00014206  00000-0  79007-3 0  9997
2 43784  97.4618  92.8381 0002977 213.9875 146.1166 15.13774994337787
ITASat 1
1 43786U 18099AE  25036.57044882  .00011525  00000-0  70659-3 0  9993
2 43786  97.4772  93.7547 0014041 274.7491  85.2136 15.10228502337728
EAGLET 1
1 43790U 18099AJ  25036.61973333  .00007444  00000-0  49757-3 0  9995
2 43790  97.4972  94.0981 0011134 252.5530 107.4481 15.07207666337385
ESEO
1 43792U 18099AL  25036.57556888  .00002906  00000-0  22749-3 0  9994
2 43792  97.4635  88.9072 0009697 210.7619 149.3039 15.01745604337209
CSIM
1 43793U 18099AM  25036.61857046  .00079397  00000-0  19388-2 0  9992
2 43793  97.5025 108.5683 0007390 211.8479 148.2321 15.40525627338370
JO-97
1 43803U 18099AX  25036.39288776  .00017081  00000-0  88384-3 0  9992
2 43803  97.4865  96.8380 0007556 212.4288 147.6481 15.16278872337925
Suomi 100
1 43804U 18099AY  25036.43190061  .00015704  00000-0  85349-3 0  9995
2 43804  97.4936  96.4634 0012666 215.3941 144.6451 15.14512043337887
ISAT
1 43879U 18111D   25036.28022156  .00025900  00000-0  11119-2 0  9996
2 43879  97.6038 308.5225 0007756 276.0596  83.9756 15.22658431334736
UWE-4
1 43880U 18111E   25036.25316550  .00020820  00000-0  96433-3 0  9998
2 43880  97.5974 307.7097 0011425 288.7771  71.2223 15.20072466334709
Sparrow
1 43881U 18111F   25036.80781727  .00028581  00000-0  11947-2 0  9990
2 43881  97.6158 311.5111 0006519 328.3224  31.7619 15.23550374332897
Prox-1
1 44339U 19036A   25036.53308820  .00019268  00000-0  27134-2 0  9992
2 44339  23.9963 154.2166 0008646  97.4598 262.6881 14.75729346299649
SONATE
1 44400U 19038Q   25036.59914077  .00072827  00000-0  98333-3 0  9996
2 44400  97.7109  50.7058 0009368   2.7075 357.4228 15.57487349310096
